This is the latest recevied weather packets stored in our database for station/object KD2FKI. If no packets are shown the sender has not sent any weather packets the latest 10 day(s).
| Time | Temp. | Humidity | Pressure | Rain* | Wind** | Luminosity | Snow |
|---|---|---|---|---|---|---|---|
| 1778083239 | 17.22° C | 95% | - | 0 mm | - | - | - |
| 1778082646 | 17.22° C | 96% | - | 0.25 mm | - | - | - |
| 1778082037 | 17.22° C | 97% | - | 0.51 mm | - | - | - |
| 1778081444 | 17.22° C | 98% | - | 0.51 mm | - | - | - |
| 1778080852 | 16.67° C | 99% | - | 0.51 mm | - | - | - |
| 1778080244 | 16.11° C | 99% | - | 0.51 mm | - | - | - |
| 1778079633 | 16.11° C | 99% | - | 0.76 mm | - | - | - |
| 1778079039 | 16.11° C | 99% | - | 0.76 mm | - | - | - |
| 1778078449 | 16.11° C | 99% | - | 0.51 mm | - | - | - |
| 1778077836 | 16.11° C | 99% | - | 1.02 mm | - | - | - |
| 1778077244 | 16.11° C | 99% | - | 1.52 mm | - | - | - |
| 1778076634 | 16.11° C | 99% | - | 2.03 mm | - | - | - |
| 1778076042 | 15.56° C | 99% | - | 2.29 mm | - | - | - |
| 1778075431 | 16.11° C | 99% | - | 2.29 mm | - | - | - |
| 1778074876 | 16.11° C | 99% | - | 2.54 mm | - | - | - |
| 1778074247 | 16.11° C | 99% | - | 2.03 mm | - | - | - |
| 1778073637 | 16.11° C | 99% | - | 1.78 mm | - | - | - |
| 1778073047 | 16.11° C | 98% | - | 1.52 mm | - | - | - |
| 1778072434 | 16.11° C | 98% | - | 1.27 mm | - | - | - |
| 1778071843 | 16.11° C | 98% | - | 1.27 mm | - | - | - |
| 1778071235 | 16.11° C | 97% | - | 1.02 mm | - | - | - |
| 1778070640 | 16.67° C | 96% | - | 1.02 mm | - | - | - |
| 1778070030 | 16.67° C | 96% | - | 0.76 mm | - | - | - |
| 1778069438 | 16.67° C | 94% | - | 0.51 mm | - | - | - |
| 1778068845 | 16.67° C | 92% | - | 0.25 mm | - | - | - |
* Rain latest hour (hover to see other rain measurements)
** Current wind speed in m/s (hover to see current wind gust speed)